GFSSGP_sfc_dewp_294.txt.gz
Dewpoint
54 46 44 40 27 28 26 28 29 31 32 29 41 39 40 47 41 41 62 63 62 63 63 66 70 70 70 70 69 70 70 70 69 66 67 67 67 67 67 67 66 67 67 67 68 69 69 69 68
49 41 40 35 24 20 21 28 29 29 35 39 42 44 44 49 56 60 61 63 62 63 63 64 70 70 70 69 69 70 69 68 68 67 66 66 67 67 67 67 66 66 67 67 67 68 68 68 67
42 36 36 29 26 18 21 28 30 33 39 34 37 44 45 52 58 58 61 63 63 63 64 66 70 70 70 69 69 69 69 68 68 68 67 67 67 66 66 67 67 67 67 67 67 67 67 67 67
39 31 26 24 22 25 25 28 30 39 37 33 38 37 52 57 58 60 63 63 63 63 64 69 71 70 70 70 69 69 69 68 68 67 67 67 66 66 67 68 68 68 67 67 67 66 66 67 66
35 27 20 23 21 20 26 30 32 32 29 31 38 37 47 58 61 63 63 62 62 63 64 67 70 70 70 70 70 69 69 68 68 67 67 66 66 67 67 68 67 67 66 66 67 66 66 66 66
30 24 17 20 20 23 31 31 30 28 28 34 36 38 48 60 62 63 63 62 63 64 65 66 69 70 70 70 71 70 69 69 68 68 66 65 66 67 67 68 67 65 65 65 66 66 66 66 66
26 22 17 18 19 26 30 32 30 29 28 31 38 35 49 58 63 64 63 62 63 64 64 64 65 66 68 69 70 70 70 70 69 69 68 67 67 67 67 67 66 65 65 66 66 66 66 66 66
28 23 17 19 19 23 33 33 34 29 27 37 42 31 41 56 63 63 63 63 62 63 63 63 64 64 65 66 68 69 69 69 69 69 67 67 67 68 67 68 66 64 66 66 65 65 65 65 65
30 19 16 20 23 23 34 33 32 29 30 36 42 38 50 60 63 63 63 63 62 62 62 64 64 65 65 65 66 67 68 67 67 67 66 65 63 63 63 65 65 66 65 65 64 64 63 62 63
28 20 15 20 22 23 32 32 28 27 28 30 39 48 56 62 62 61 61 61 62 62 64 63 64 64 65 64 65 65 65 64 64 64 64 64 62 63 63 63 63 64 64 63 61 61 61 61 59
28 16 17 19 21 24 30 29 24 24 28 28 30 42 57 60 61 60 60 61 61 62 62 64 64 64 64 63 63 63 63 63 63 63 63 62 61 62 62 60 60 61 60 58 59 58 57 58 57
21 18 14 24 28 25 29 27 23 23 24 23 27 39 55 59 60 60 60 60 60 61 61 63 64 64 63 63 62 61 60 61 61 62 63 61 60 61 60 59 61 60 59 57 57 56 56 57 56
22 22 26 26 25 23 23 22 21 21 23 25 26 44 52 56 58 59 60 61 61 61 61 62 64 63 63 62 62 61 59 59 60 61 62 62 61 61 60 59 59 59 58 57 56 56 55 53 54
20 26 26 28 26 25 23 21 24 23 26 23 36 40 47 52 55 57 58 58 59 60 62 63 63 62 62 61 62 60 59 59 59 60 61 62 61 61 61 60 59 58 58 57 57 56 55 53 53
27 24 26 27 27 25 24 23 22 29 27 24 30 39 47 51 54 55 57 57 58 59 60 61 62 63 62 61 61 60 60 59 59 60 62 62 61 61 61 60 58 58 59 58 57 56 54 52 49
24 25 22 26 28 27 26 20 26 30 28 26 25 25 44 50 53 54 56 57 58 58 59 61 61 62 61 60 61 60 59 59 60 60 61 62 61 61 60 60 59 59 58 57 56 54 51 48 46
27 22 21 26 28 27 26 23 28 30 29 29 28 29 28 32 49 53 54 56 56 57 58 60 62 61 62 61 61 61 61 60 60 60 61 61 61 60 59 59 59 58 58 56 55 52 49 46 43
25 22 23 24 27 27 25 25 28 29 29 30 30 30 32 29 31 37 40 50 55 56 57 58 61 61 62 62 61 61 60 60 60 60 60 61 60 59 59 58 58 57 56 55 53 50 48 46 43
25 23 23 25 28 26 26 25 26 29 29 30 30 31 33 34 40 43 43 42 45 56 57 58 59 60 61 61 60 59 59 59 59 59 59 59 59 58 58 57 56 56 54 53 52 49 47 45 45
25 23 25 28 28 27 27 26 28 29 31 33 34 34 36 37 39 41 44 45 39 52 57 57 58 59 60 60 60 59 59 58 58 59 58 58 57 57 55 55 54 53 53 51 50 49 46 45 45
25 23 25 25 28 27 27 25 28 29 31 34 36 37 37 38 38 40 42 45 48 46 56 57 58 59 59 59 60 59 59 58 57 57 57 56 56 55 54 53 52 52 51 50 50 49 48 45 45
25 26 26 29 28 25 25 19 20 26 28 32 35 36 37 38 39 41 43 45 47 51 54 57 58 59 59 60 59 59 58 57 58 58 57 56 54 53 52 51 51 51 51 50 50 48 48 47 46
26 28 29 28 29 26 25 25 16 25 25 28 34 35 36 37 39 40 42 42 44 47 53 57 58 59 59 59 59 59 58 58 57 57 56 55 55 55 53 52 52 52 51 51 51 50 49 48 47
28 27 28 30 29 30 22 19 12 18 20 27 33 34 35 36 38 40 40 41 42 44 46 49 49 50 56 58 58 59 58 56 55 54 53 52 52 52 52 52 52 52 52 51 51 51 50 49 48
27 25 30 29 33 21 21 19 14 17 27 29 32 33 34 36 37 38 40 40 40 42 43 44 45 45 47 48 49 50 50 50 49 49 49 49 49 49 50 50 50 50 51 51 51 51 50 50 49
27 25 31 28 21 17 22 20 17 32 33 33 33 33 34 34 35 36 37 38 39 40 41 42 42 42 43 43 44 45 46 46 45 46 46 45 46 46 47 48 49 49 50 50 51 51 51 51 51
26 26 21 18 17 18 17 18 25 33 32 31 32 32 32 32 33 33 34 35 36 37 38 39 39 38 38 38 38 37 37 37 36 35 36 36 37 36 38 40 41 43 45 47 49 49 49 50 50
26 22 20 22 22 10 13 16 17 31 31 31 31 31 31 31 31 31 31 32 33 33 34 34 34 33 33 32 31 30 30 30 29 28 29 29 30 32 32 33 33 34 36 37 41 44 47 48 48
24 21 21 20 22 26 3 8 22 27 31 31 30 30 30 29 28 28 29 29 30 31 31 32 32 31 30 30 29 28 29 28 27 26 26 27 27 28 29 29 29 30 30 31 32 34 37 40 43
25 22 19 19 18 20 18 9 28 31 33 31 30 28 28 28 27 27 27 27 26 27 28 29 30 29 29 28 28 28 28 27 27 27 27 27 27 28 29 29 29 29 30 31 32 33 36 38 38

GFSSGP_sfc_dewp_297.txt.gz
Dewpoint
55 45 42 40 30 24 24 24 23 28 29 31 40 36 39 46 43 49 60 59 59 60 63 67 71 70 69 69 69 69 69 69 69 68 68 67 67 67 66 67 67 67 68 68 68 68 68 68 68
44 38 39 33 24 18 19 24 22 27 33 36 41 40 38 49 54 58 59 59 60 59 62 64 70 70 70 69 69 69 69 68 67 66 67 67 67 66 66 67 67 67 68 68 68 68 68 67 67
43 36 35 26 20 17 21 22 27 34 33 31 35 40 41 51 54 55 58 60 61 61 60 67 71 70 69 69 69 69 68 68 68 68 67 67 67 66 67 67 67 67 67 67 67 67 67 67 66
36 33 28 21 18 24 22 23 28 34 33 31 31 37 49 57 54 56 59 59 61 60 62 68 71 70 70 69 69 69 68 68 68 67 67 67 66 66 67 68 67 67 68 67 66 66 67 67 66
35 29 18 19 21 22 23 27 28 30 28 28 29 36 47 57 58 58 59 59 60 59 63 66 70 70 70 70 70 70 69 68 68 67 66 66 66 67 68 67 66 66 67 67 66 66 66 66 66
29 25 16 18 20 22 25 28 28 24 23 29 28 36 49 58 59 58 59 59 61 60 63 65 70 70 70 70 70 70 69 68 68 67 66 66 66 67 68 67 65 65 66 66 66 66 66 66 65
33 20 18 18 20 24 26 28 25 25 23 26 30 35 50 56 58 59 57 58 59 62 61 63 64 67 69 70 70 69 69 68 68 68 67 68 68 67 67 66 65 65 66 66 66 66 66 66 65
29 23 18 20 18 22 29 28 28 25 23 33 34 33 46 54 59 59 58 58 58 60 60 60 62 64 65 66 69 69 68 68 68 68 67 67 67 68 67 66 66 66 66 65 65 65 65 65 65
31 19 18 19 18 23 30 29 33 30 29 29 36 37 46 57 59 58 58 58 57 58 59 60 61 61 64 65 66 68 68 68 67 66 66 65 63 63 64 64 66 66 65 64 63 63 62 64 64
25 21 17 17 17 21 30 28 31 28 27 30 38 48 54 58 58 57 57 57 57 57 57 59 61 61 62 62 64 64 64 64 64 65 63 62 60 64 63 62 63 64 63 63 61 61 62 62 58
21 22 16 16 19 22 30 29 28 25 27 26 32 46 57 59 58 59 60 58 58 58 60 59 60 60 62 60 63 63 61 62 62 60 61 60 59 61 62 61 60 61 61 58 59 58 57 57 57
22 17 14 18 26 26 29 29 25 25 25 25 28 44 55 59 58 58 58 58 59 61 61 63 60 62 60 60 59 58 58 59 59 60 60 58 58 59 57 57 59 58 57 55 56 55 55 55 55
21 16 17 24 26 26 28 28 25 25 24 26 25 41 52 57 58 57 57 58 60 60 62 62 62 60 60 59 59 58 57 58 57 59 59 59 58 58 57 57 56 56 56 55 54 54 53 51 50
17 21 23 26 24 23 25 23 23 22 25 23 29 38 47 52 55 57 57 58 60 61 61 62 62 60 60 60 60 58 57 57 57 57 57 58 58 58 59 57 57 56 56 55 54 54 53 51 50
21 23 26 27 26 24 24 22 22 24 26 24 27 32 41 46 52 54 56 56 57 59 60 61 60 60 60 59 60 59 58 57 57 57 57 57 57 57 57 58 57 57 58 57 55 54 53 51 48
20 18 19 23 27 28 26 20 22 28 25 23 25 32 41 45 49 52 54 55 56 56 57 58 58 59 60 59 59 58 58 57 56 56 57 58 57 57 57 57 57 58 58 57 56 53 51 49 46
17 14 15 25 27 27 25 17 26 29 28 24 24 25 34 44 49 51 53 54 55 55 56 58 59 59 59 58 59 58 57 57 56 56 57 58 58 58 57 56 56 58 57 56 55 52 50 48 46
19 16 13 20 26 27 25 23 28 29 28 28 26 27 28 32 46 50 52 54 55 55 55 57 59 59 59 59 58 58 58 58 57 57 57 58 59 59 58 57 57 56 55 54 53 51 50 48 46
21 17 21 18 27 26 25 23 27 29 29 29 28 29 30 29 37 41 42 44 52 55 55 56 59 59 59 59 58 57 57 58 58 58 58 59 59 59 58 57 56 56 54 53 51 50 48 48 47
25 22 21 28 27 27 25 25 26 28 29 30 30 31 33 35 37 40 43 43 43 53 56 56 57 59 59 59 58 58 58 58 58 59 59 59 58 58 56 56 55 54 54 53 52 51 49 48 48
25 24 23 25 28 26 27 27 27 29 30 32 33 35 36 37 37 39 42 44 46 44 56 56 57 58 59 59 60 59 60 59 58 58 58 58 57 56 56 55 54 54 54 53 53 52 50 49 49
24 25 24 29 28 25 26 19 25 28 29 31 33 35 36 38 39 41 43 45 47 49 53 57 57 58 59 60 60 59 58 57 58 57 58 57 56 54 53 53 52 53 54 53 53 50 50 51 49
26 28 28 29 29 27 25 25 16 25 26 28 31 34 37 38 40 42 44 45 47 50 55 57 58 58 58 59 59 60 60 59 58 58 57 56 56 55 54 53 53 53 53 53 53 53 52 52 50
29 28 30 31 31 32 23 21 17 20 20 25 31 34 36 38 41 42 43 44 46 49 51 52 53 55 59 59 59 60 58 57 56 56 53 53 53 53 52 52 52 52 52 52 53 53 53 52 51
27 27 32 31 35 24 21 22 19 22 25 24 31 33 36 39 41 43 42 43 44 46 47 49 49 49 52 53 53 55 56 54 52 50 50 50 51 50 48 49 49 49 50 51 51 52 52 52 52
26 28 33 28 23 22 21 20 18 25 31 30 32 34 36 38 39 42 41 41 42 43 44 45 45 44 45 46 46 46 47 47 46 47 47 46 45 43 43 43 43 44 45 47 49 51 51 51 50
26 26 24 20 16 19 19 17 28 31 30 32 33 34 36 37 38 38 40 40 41 41 42 41 40 40 40 39 39 38 38 37 37 36 36 35 34 31 33 35 34 35 35 36 38 43 44 47 49
27 24 23 23 21 13 13 14 18 29 29 31 32 33 35 35 36 36 36 37 37 37 38 38 37 35 35 34 32 30 29 28 28 27 26 26 27 28 28 28 29 30 31 31 33 34 35 36 40
25 22 21 20 24 24 9 10 17 24 30 31 31 33 33 33 33 33 32 33 33 34 33 33 32 31 29 29 27 27 26 25 24 24 24 25 25 26 26 26 26 26 26 27 29 30 32 34 36
23 19 19 20 16 19 21 16 26 29 31 32 31 32 32 32 31 30 30 29 29 30 30 29 29 27 27 26 26 27 26 26 25 25 25 25 25 26 27 27 26 26 28 28 28 30 31 31 33

GFSSGP_sfc_dewp_300.txt.gz
Dewpoint
58 52 48 45 38 32 28 26 26 30 29 34 38 37 46 50 52 52 57 58 60 63 67 68 71 70 70 70 69 70 70 70 70 69 68 67 66 67 68 67 68 68 68 67 68 68 68 68 69
52 40 43 42 29 26 24 22 25 32 32 38 39 37 47 51 56 56 57 58 60 64 65 68 71 70 70 70 69 70 69 68 68 67 67 67 66 67 67 67 67 68 68 68 68 68 67 67 68
51 39 43 36 26 22 26 23 31 34 33 32 36 42 47 52 54 56 59 60 60 61 65 69 71 70 70 70 70 70 69 68 68 68 66 66 66 66 67 67 68 67 67 67 68 67 67 67 66
41 39 37 27 22 25 24 27 33 31 31 30 34 44 52 56 54 57 59 60 59 65 67 70 71 70 70 70 70 69 68 68 68 68 67 67 66 67 67 68 68 68 67 67 67 67 67 66 66
41 40 28 22 22 22 24 26 31 31 28 27 29 41 51 57 57 58 58 60 60 64 66 69 71 71 70 70 70 70 69 68 68 67 67 66 66 68 67 66 66 67 67 67 67 67 66 66 66
37 34 24 22 21 22 25 27 27 24 24 28 33 46 52 58 57 58 59 60 60 64 65 67 70 71 71 70 70 69 69 69 68 68 67 66 66 68 67 66 66 67 67 67 67 67 66 66 65
37 32 25 22 23 24 25 26 25 23 25 27 34 44 54 56 58 58 58 59 60 63 64 66 67 69 70 70 69 69 69 68 68 68 68 68 68 68 66 66 66 66 66 67 66 66 66 66 65
36 33 22 21 23 25 27 26 26 24 29 31 34 43 50 56 58 58 57 58 60 60 62 63 65 65 66 67 68 68 68 69 68 68 67 67 67 68 66 66 67 66 65 65 65 64 65 65 64
36 31 24 23 25 28 28 30 32 30 30 30 41 46 51 57 58 57 58 58 59 59 60 62 63 64 65 66 67 68 68 67 66 66 66 65 64 65 62 65 65 66 65 63 63 63 63 65 64
32 28 24 22 19 30 29 30 30 26 27 35 45 51 56 57 57 57 57 57 57 57 58 60 61 63 65 65 66 66 66 66 65 64 63 64 63 64 62 62 63 64 64 63 63 62 63 63 60
29 28 23 20 29 29 30 29 30 26 28 33 44 54 56 56 56 56 57 57 57 57 58 60 61 63 63 63 65 65 64 64 63 63 61 60 61 62 62 61 60 61 61 60 60 60 58 57 56
22 21 23 24 29 28 30 30 27 27 27 28 44 55 56 56 55 56 57 57 57 60 61 62 61 61 62 62 62 62 61 61 60 60 60 58 59 58 59 60 60 60 57 55 55 56 54 54 54
24 23 20 29 29 27 32 30 26 25 26 26 46 55 57 56 56 58 58 58 60 60 61 61 63 61 60 59 61 58 59 58 58 60 59 59 59 58 57 56 57 56 56 55 55 54 53 51 50
27 26 21 28 26 28 30 28 26 26 24 26 30 50 57 58 57 57 57 57 60 59 60 61 63 60 60 60 59 58 58 57 58 59 59 58 58 59 57 57 57 57 57 57 56 54 53 52 50
26 24 26 27 26 25 27 25 24 24 25 24 28 41 51 55 56 56 57 57 59 59 60 60 62 61 60 60 59 59 58 58 57 57 57 57 58 57 57 58 57 58 58 57 57 55 53 50 48
22 25 24 26 28 30 27 24 25 26 25 24 26 33 42 50 53 55 57 57 59 60 61 62 61 60 60 59 60 59 58 58 57 57 58 57 57 57 57 57 57 58 58 57 56 53 51 49 46
22 19 20 26 29 29 27 22 27 28 26 23 24 33 40 44 49 52 55 56 56 57 58 59 58 59 60 59 59 58 58 57 57 57 58 57 57 57 56 56 57 57 57 56 54 52 50 48 46
19 13 16 25 27 27 26 26 28 28 28 25 23 26 37 44 48 50 53 54 55 55 57 58 59 59 59 59 59 59 59 58 57 57 57 57 59 59 58 57 56 56 55 54 53 51 49 48 46
21 13 16 21 27 27 27 23 28 29 29 28 25 28 28 42 41 43 43 44 49 55 56 58 59 59 59 59 58 58 58 58 57 58 59 59 60 59 58 57 56 55 54 52 51 50 48 47 47
24 21 17 29 27 26 26 25 28 29 29 30 29 29 30 37 39 42 43 43 44 47 56 57 59 59 59 59 58 58 58 58 58 59 59 59 58 57 55 56 55 54 53 53 52 50 49 49 47
25 26 22 29 28 27 28 25 28 29 30 31 33 34 35 36 38 40 42 44 44 43 50 57 58 59 59 59 59 58 59 59 58 58 58 57 57 57 55 53 53 53 53 53 52 51 49 48 49
25 27 29 30 28 25 27 24 26 28 29 31 33 35 36 37 38 41 43 46 48 49 52 56 58 59 59 59 59 58 58 57 57 58 57 55 55 53 53 52 52 52 53 52 52 51 49 49 48
28 29 32 31 29 30 25 25 20 27 28 30 32 34 37 38 39 42 44 46 47 50 52 55 58 59 59 60 59 59 58 58 58 57 55 55 53 54 53 53 53 52 52 52 51 51 51 51 49
30 30 31 31 32 27 27 24 22 26 27 29 31 35 37 39 42 43 44 46 46 48 50 52 54 55 58 59 59 59 58 57 56 54 52 53 52 52 51 51 50 50 50 50 51 51 50 50 50
30 28 27 25 24 27 23 23 22 22 26 28 31 35 37 40 42 42 43 44 45 45 49 50 51 51 52 53 56 57 56 54 53 52 51 51 51 48 47 48 48 48 48 49 50 50 49 50 49
28 27 29 18 24 23 21 20 22 30 31 32 33 36 38 40 42 42 43 43 44 45 46 47 47 47 48 48 48 49 49 49 49 48 46 45 42 41 38 37 36 36 37 38 40 45 47 48 48
28 27 28 22 17 22 22 20 28 30 30 32 34 36 38 39 41 41 41 42 43 43 43 43 43 42 43 42 42 41 40 39 37 36 36 35 34 31 32 32 31 31 32 32 33 36 36 36 39
28 27 24 24 16 16 18 18 21 28 29 32 34 35 37 38 39 39 40 40 40 40 39 39 39 38 37 35 33 31 30 29 29 28 27 28 28 28 28 28 28 29 29 30 31 32 33 34 37
26 24 24 25 29 21 13 16 22 25 28 31 33 35 36 36 36 36 37 37 36 35 35 34 33 32 30 30 28 27 26 26 26 25 26 26 27 27 27 27 27 28 29 29 29 30 32 32 33
25 23 22 22 19 23 21 14 28 30 30 32 33 34 35 34 34 33 33 33 33 32 31 30 30 29 28 28 28 29 28 27 27 26 26 26 26 27 28 28 29 29 30 30 30 31 31 32 33

GFSSGP_sfc_dewp_303.txt.gz
Dewpoint
58 55 51 41 31 29 28 24 30 28 29 38 39 51 53 53 53 49 58 65 67 68 69 69 71 70 70 69 69 70 71 70 70 69 67 67 67 68 68 68 68 67 67 68 68 68 69 69 69
52 50 41 38 24 24 24 27 29 31 35 39 40 48 51 53 56 56 60 64 67 68 68 69 71 70 70 69 70 70 69 69 68 68 66 66 67 67 67 67 67 67 68 68 68 67 67 67 68
52 45 39 33 23 19 22 30 32 35 37 35 39 48 52 54 56 57 61 64 65 67 68 69 71 71 71 70 70 69 68 67 66 66 65 66 66 66 67 67 67 67 68 68 67 67 67 66 67
42 36 32 24 23 22 27 32 31 30 30 34 46 49 53 56 56 58 60 63 64 67 68 70 71 71 71 71 70 69 68 68 68 68 68 67 65 66 67 68 68 68 68 67 67 67 66 66 66
39 37 24 23 18 23 29 32 31 29 28 29 42 49 54 57 58 59 60 65 66 68 69 69 71 71 71 71 70 70 69 68 67 67 66 67 67 67 67 67 67 67 67 67 67 66 66 66 66
32 31 21 19 17 22 26 31 32 28 27 39 48 51 54 57 57 59 61 64 66 67 68 69 70 70 70 70 70 70 69 68 68 68 67 67 67 66 66 67 67 67 67 67 67 66 66 65 65
31 28 22 19 19 23 25 26 23 26 27 28 48 50 55 56 58 59 61 64 65 66 67 68 69 69 69 69 69 69 69 69 69 69 69 69 68 66 66 66 66 67 66 66 66 66 66 65 64
33 30 24 22 21 24 25 25 25 26 27 32 51 51 53 56 58 58 60 62 64 65 66 66 67 68 68 68 68 68 68 69 69 68 67 67 67 66 66 67 67 65 65 65 64 65 65 64 64
32 26 23 20 22 27 27 29 30 31 30 42 45 50 55 57 57 57 59 59 61 63 64 64 65 66 67 67 66 68 67 67 66 66 65 64 65 64 64 65 65 66 64 64 63 63 63 64 63
29 26 22 22 23 27 29 30 28 27 33 43 53 55 56 56 56 56 57 57 58 60 63 64 64 66 66 66 66 66 66 64 64 64 64 64 64 62 62 62 63 64 64 64 63 62 64 62 60
27 22 21 20 32 30 30 30 28 28 32 42 53 55 56 56 56 56 56 57 57 57 60 62 64 65 65 65 66 65 65 64 65 62 64 61 62 61 60 60 61 60 60 59 60 59 57 56 56
27 20 21 24 29 32 29 31 27 27 28 44 55 56 56 55 56 56 56 56 56 58 60 61 63 63 64 65 65 64 64 64 63 62 59 58 60 61 61 60 60 61 59 56 55 54 53 51 51
25 23 21 30 27 28 31 29 26 25 28 50 55 56 56 55 56 57 57 57 60 59 60 61 62 62 62 62 62 61 60 60 60 60 59 60 58 57 57 57 56 56 56 55 55 54 53 51 49
26 26 25 29 27 29 30 26 26 25 32 53 55 55 56 56 57 57 57 58 60 60 60 61 62 61 60 58 59 58 58 58 59 59 58 58 59 57 57 57 56 56 57 57 55 54 53 51 50
28 22 26 28 26 26 26 25 24 24 26 48 55 56 57 57 57 57 57 58 59 59 60 60 61 62 58 59 59 58 57 57 58 58 58 57 57 56 57 57 57 57 57 57 56 53 51 49 47
21 24 23 26 27 28 26 23 24 25 24 26 35 56 57 57 58 57 57 59 59 59 59 60 61 62 59 60 59 58 58 57 57 57 58 57 57 57 56 57 58 59 57 56 55 52 50 48 47
23 19 21 26 28 28 25 21 25 26 24 23 27 40 54 56 57 56 57 59 60 60 60 61 61 60 59 59 59 58 57 57 57 57 57 57 57 57 57 57 58 57 56 55 53 52 49 47 46
19 16 20 24 28 25 25 26 28 27 25 23 23 33 42 52 52 56 57 58 60 60 61 61 60 59 59 59 58 58 57 57 57 57 57 57 59 58 58 57 56 55 54 52 51 49 48 47 46
19 16 17 24 28 25 24 26 28 28 28 24 24 35 39 45 43 44 44 50 57 58 59 59 58 59 59 58 57 57 56 57 57 57 58 59 60 58 57 56 55 54 53 52 51 49 48 48 47
26 14 14 28 28 25 26 24 28 28 28 28 24 27 33 39 41 43 43 44 45 53 58 58 58 59 58 58 58 58 57 57 57 59 59 59 58 57 55 55 54 53 53 52 51 50 49 49 48
23 23 22 26 27 26 25 24 27 29 29 31 30 29 35 39 40 41 42 43 44 44 52 58 59 58 59 58 58 58 58 58 57 57 57 57 57 56 54 53 52 52 53 52 51 50 49 48 48
19 27 28 29 26 23 26 21 25 28 28 31 32 34 35 37 40 41 43 46 47 49 52 55 59 59 59 59 58 58 57 56 56 57 56 55 54 53 52 52 52 53 53 51 51 51 49 48 47
24 30 31 29 26 26 25 24 23 28 27 30 32 34 36 38 40 41 45 46 47 49 50 52 58 59 59 59 58 58 58 57 57 55 53 53 53 53 53 53 53 52 52 51 51 50 50 49 48
30 30 31 32 29 24 25 24 21 26 27 29 31 34 36 38 41 44 44 46 45 47 49 51 55 59 59 59 59 58 57 56 55 53 52 51 51 50 50 50 49 49 50 50 50 49 49 48 48
30 27 25 23 23 23 26 23 22 23 27 29 31 34 38 41 42 42 42 43 43 44 47 49 52 53 56 59 59 58 57 57 55 52 52 51 48 47 46 45 43 43 42 43 44 47 47 48 47
27 26 25 16 22 23 21 23 23 29 31 31 32 36 40 41 42 42 42 43 43 44 46 48 50 50 51 53 52 53 54 53 52 51 50 46 42 39 37 35 34 33 34 34 36 37 38 36 40
28 26 29 22 24 22 22 20 26 30 33 35 36 38 40 41 41 41 42 43 43 43 44 46 46 46 47 47 47 46 46 46 41 39 37 36 35 32 32 31 30 30 31 31 33 33 33 35 36
28 28 24 25 17 18 19 18 22 27 31 34 36 37 39 41 40 41 42 42 42 41 42 43 43 42 40 41 41 39 36 35 35 32 30 29 29 29 29 28 29 29 30 30 31 32 33 32 34
26 26 26 26 25 21 16 19 23 26 30 33 35 37 39 40 40 40 40 40 39 37 36 37 37 37 35 35 33 32 30 28 27 28 27 27 28 28 28 28 29 30 30 30 31 31 32 32 33
26 25 24 24 22 22 21 15 28 28 28 33 35 37 37 38 37 37 37 36 35 34 33 32 32 31 31 29 29 28 28 27 27 27 26 27 28 28 29 29 30 30 30 30 31 32 33 34 34

GFSSGP_sfc_dewp_306.txt.gz
Dewpoint
58 52 49 40 27 27 26 25 30 29 35 40 52 53 53 54 50 46 59 65 68 68 69 69 71 70 69 70 69 71 71 70 69 69 67 67 68 69 68 68 68 68 68 67 68 69 69 69 68
50 50 41 37 24 24 24 28 28 31 42 49 46 52 53 53 55 62 63 67 68 68 68 68 71 70 69 69 70 70 69 68 68 65 66 67 68 68 67 67 67 68 68 67 67 67 68 68 68
52 46 36 32 23 20 23 30 34 37 39 37 44 53 54 54 59 59 64 67 67 68 68 69 71 70 70 70 69 69 68 66 65 65 66 66 67 66 67 67 68 68 67 67 67 67 67 68 68
41 34 29 27 24 21 28 32 34 31 32 45 50 49 54 56 56 62 66 66 67 68 69 70 71 71 70 70 70 68 68 67 66 65 65 66 65 65 67 67 67 67 67 67 66 66 66 67 68
39 34 22 23 19 22 32 33 31 28 31 41 49 52 54 57 61 64 64 66 67 68 69 69 71 70 71 70 70 69 68 67 67 66 66 66 66 67 67 67 67 67 67 67 66 66 66 66 67
32 30 20 17 16 26 32 31 29 27 36 49 53 53 54 58 60 63 65 66 67 68 69 69 70 70 70 70 70 69 69 68 68 68 67 67 66 66 67 67 67 67 67 67 66 66 65 65 65
29 26 21 18 17 25 27 31 27 26 34 46 52 51 54 56 60 64 65 66 67 68 68 69 69 69 69 69 69 69 69 69 68 69 69 68 67 67 67 66 67 66 66 66 66 65 65 65 65
33 27 20 20 21 23 26 26 26 27 27 48 54 52 52 56 60 63 64 65 66 67 67 67 67 68 68 67 68 68 69 69 69 68 68 67 67 67 67 67 66 65 65 64 64 65 64 64 64
32 26 20 19 21 25 26 27 27 31 35 43 48 54 55 57 60 62 63 63 64 65 66 66 66 66 66 67 66 67 67 67 66 66 65 65 64 63 63 65 65 65 64 64 63 63 63 63 62
29 26 22 21 21 26 27 28 28 34 41 51 53 55 56 57 59 60 60 61 62 63 64 65 65 66 66 66 66 65 65 64 64 64 63 64 62 62 62 62 63 63 62 62 63 62 62 61 58
29 23 21 19 30 29 30 28 28 35 39 50 53 55 55 56 57 58 59 59 59 62 63 64 65 65 65 65 65 64 64 63 63 63 63 62 62 61 60 60 60 59 60 59 58 57 55 55 54
24 25 23 22 27 31 29 30 27 29 32 49 55 55 55 55 56 57 57 57 57 59 62 63 65 65 64 65 65 64 64 63 63 62 61 60 60 60 59 59 59 60 57 55 54 53 51 50 49
25 25 21 23 26 31 31 29 26 26 38 55 55 55 55 55 55 56 57 57 57 59 61 62 65 64 63 64 64 64 63 63 61 60 59 60 58 58 60 56 56 56 55 55 54 53 52 50 49
27 26 25 28 24 29 29 26 25 25 50 55 55 55 55 55 56 56 56 56 58 60 60 61 62 62 62 62 62 62 61 60 59 59 58 58 58 56 57 56 56 57 57 57 55 53 51 50 47
27 23 24 26 25 26 27 25 25 28 54 54 55 55 55 55 56 56 56 57 58 60 60 61 61 60 59 58 58 59 58 59 59 58 58 57 58 55 57 57 57 57 57 56 54 52 50 48 46
22 23 20 24 25 27 28 26 26 32 53 54 54 55 55 56 56 57 58 59 59 59 59 60 61 60 58 58 58 58 57 58 58 58 57 57 57 56 57 58 57 58 57 56 53 51 49 48 47
21 19 21 24 27 26 25 21 25 25 49 51 54 55 55 56 57 57 57 59 59 59 59 59 61 61 59 59 58 57 57 57 57 57 57 57 57 56 56 57 57 56 55 54 53 51 48 47 46
19 17 21 20 26 25 24 22 27 25 29 42 47 54 55 56 56 57 57 59 59 59 59 59 60 60 59 59 58 57 57 56 57 57 57 57 58 57 57 56 55 54 53 51 50 48 48 47 46
20 16 20 23 27 24 23 24 26 27 24 23 26 42 53 55 52 56 57 59 59 60 60 60 60 59 59 58 57 56 55 56 56 57 57 59 59 57 56 55 54 53 52 51 50 49 48 48 48
20 16 17 25 28 23 24 24 27 28 27 25 23 33 45 43 44 47 52 58 59 60 60 60 59 59 58 58 57 57 56 56 57 59 59 59 58 57 55 54 53 53 52 52 50 49 49 48 48
25 16 17 23 27 26 25 23 24 28 29 29 25 31 41 44 43 44 46 49 53 58 59 59 58 59 58 58 58 57 57 57 56 57 58 57 56 55 54 53 53 52 52 52 50 49 48 47 48
24 25 24 28 26 23 23 18 24 26 28 30 28 28 37 42 43 43 43 44 45 49 55 58 58 58 58 58 57 57 56 55 56 56 56 55 54 53 52 52 52 52 52 51 50 50 49 48 47
24 27 30 28 25 25 26 23 21 27 26 28 31 30 33 40 42 42 44 46 48 50 52 55 58 58 58 58 58 57 56 55 55 54 53 52 53 53 53 53 52 51 51 50 50 49 49 49 47
28 31 31 32 28 23 23 23 21 26 25 28 30 33 35 37 40 43 45 46 46 48 49 51 56 58 59 58 58 58 57 56 54 52 51 50 50 50 50 50 49 49 49 48 48 48 48 47 47
30 26 24 22 22 23 25 24 20 24 26 27 29 32 35 38 42 42 43 44 45 46 48 50 54 56 58 59 58 58 57 56 54 52 51 49 48 47 46 45 43 40 38 39 43 42 41 43 43
27 25 25 17 22 23 24 23 23 26 30 31 30 32 38 40 42 42 42 43 43 45 46 48 51 54 58 59 58 58 57 56 54 53 51 47 44 40 37 36 34 33 33 34 34 35 36 36 37
27 26 26 23 22 21 22 21 23 30 32 32 32 36 38 40 41 41 42 42 43 44 45 47 49 51 52 53 53 53 53 53 50 47 43 39 36 33 32 32 31 31 31 32 33 33 33 33 34
26 27 24 25 18 18 20 20 22 26 28 34 36 36 38 40 41 41 42 42 43 43 44 46 46 47 47 48 48 46 44 44 40 37 33 30 30 30 29 30 30 31 31 32 32 32 33 33 34
27 26 26 26 25 20 17 19 23 26 28 33 35 36 39 40 40 41 41 42 41 41 42 42 41 42 42 41 41 40 37 34 32 30 28 28 28 28 29 30 30 30 30 31 31 32 33 34 34
27 26 25 24 22 23 22 19 28 27 28 32 34 37 40 40 40 40 40 39 37 36 38 37 38 38 37 36 36 35 33 34 34 30 28 28 28 29 29 30 30 30 31 31 31 32 33 33 33